St. Paul, MN

1:11 AM CDT on April 29, 2017 (GMT -0500)
Saint Paul Downtown-Holman

Weather History for KSTP - September, 2013

Change the Weather History Date:

Thursday, September 26, 2013

  Actual Average Record
Temperature  
Mean Temperature 69 °F -  
Max Temperature 81 °F 65 °F 86 °F (2008)
Min Temperature 57 °F 44 °F 39 °F (2000)
Cooling Degree Days 4    
Growing Degree Days 19 (Base 50)    
Moisture  
Dew Point 55 °F    
Average Humidity 66    
Maximum Humidity 81    
Minimum Humidity 47    
Precipitation  
Precipitation 0.00 in - - ()
Sea Level Pressure  
Sea Level Pressure 29.90 in    
Wind  
Wind Speed 11 mph (SE)    
Max Wind Speed 17 mph    
Max Gust Speed 31 mph    
Visibility 10 miles    
Events      
Averages and records for this station are not official NWS values.
T = Trace of Precipitation, MM = Missing Value Source: NWS Daily Summary

Daily Weather History Graph

Daily Weather History Graph

Search for Another Location

Airport or City:

Trip Planner

Search our weather history database for the weather conditions in past years. The results will help you decide how hot, cold, wet, or windy it might be!

Date:

Astronomy

Sep. 26, 2013 Rise Set
Actual Time 7:04 AM CDT 7:01 PM CDT
Civil Twilight 6:35 AM CDT 7:30 PM CDT
Nautical Twilight 6:01 AM CDT 8:04 PM CDT
Astronomical Twilight 5:26 AM CDT 8:39 PM CDT
Moon 11:47 PM CDT (9/26) 2:10 PM CDT (9/26)
Length of Visible Light 12h 55m
Length of Day
11h 57m
Waning Gibbous, 54% of the Moon is Illuminated
Sep 26
Waning Gibbous
Sep 26
Last Quarter
Oct 4
New
Oct 11
First Quarter
Oct 18
Full

Hourly Weather History & Observations

Time (CDT) Temp. Heat Index Dew Point Humidity Pressure Visibility Wind Dir Wind Speed Gust Speed Precip Events Conditions
12:53 AM 57.9 °F - 52.0 °F 81% 29.92 in 10.0 mi SE 8.1 mph - N/A   Clear
1:53 AM 57.9 °F - 52.0 °F 81% 29.93 in 10.0 mi SE 9.2 mph - N/A   Clear
2:53 AM 57.9 °F - 52.0 °F 81% 29.93 in 10.0 mi SE 9.2 mph - N/A   Clear
3:53 AM 57.9 °F - 52.0 °F 81% 29.92 in 10.0 mi SE 11.5 mph - N/A   Clear
4:53 AM 57.9 °F - 52.0 °F 81% 29.92 in 10.0 mi SE 11.5 mph - N/A   Clear
5:53 AM 57.0 °F - 51.1 °F 81% 29.93 in 10.0 mi SE 9.2 mph - N/A   Clear
6:53 AM 57.0 °F - 50.0 °F 77% 29.93 in 10.0 mi SE 11.5 mph - N/A   Clear
7:53 AM 57.0 °F - 50.0 °F 77% 29.95 in 10.0 mi SE 11.5 mph - N/A   Clear
8:53 AM 59.0 °F - 51.1 °F 75% 29.95 in 10.0 mi SE 12.7 mph - N/A   Partly Cloudy
9:53 AM 64.0 °F - 52.0 °F 65% 29.95 in 10.0 mi SE 11.5 mph - N/A   Clear
10:53 AM 66.9 °F - 52.0 °F 59% 29.94 in 10.0 mi SE 10.4 mph - N/A   Clear
11:53 AM 72.0 °F - 54.0 °F 53% 29.93 in 10.0 mi SE 9.2 mph - N/A   Clear
12:53 PM 75.0 °F - 55.0 °F 50% 29.91 in 10.0 mi SE 15.0 mph - N/A   Clear
1:53 PM 78.1 °F - 57.9 °F 50% 29.88 in 10.0 mi SSE 16.1 mph 19.6 mph N/A   Clear
2:53 PM 80.1 °F 80.7 °F 59.0 °F 48% 29.86 in 10.0 mi SSE 16.1 mph 23.0 mph N/A   Clear
3:53 PM 81.0 °F 81.3 °F 59.0 °F 47% 29.84 in 10.0 mi SSE 16.1 mph 25.3 mph N/A   Clear
4:53 PM 81.0 °F 81.3 °F 59.0 °F 47% 29.84 in 10.0 mi SSE 15.0 mph 31.1 mph N/A   Clear
5:53 PM 79.0 °F - 60.1 °F 52% 29.84 in 10.0 mi SE 16.1 mph 26.5 mph N/A   Clear
6:53 PM 75.9 °F - 60.1 °F 58% 29.84 in 10.0 mi SE 16.1 mph 23.0 mph N/A   Clear
7:53 PM 73.0 °F - 60.1 °F 64% 29.86 in 10.0 mi SE 12.7 mph - N/A   Clear
8:53 PM 72.0 °F - 60.1 °F 66% 29.87 in 10.0 mi SE 17.3 mph 24.2 mph N/A   Clear
9:53 PM 71.1 °F - 59.0 °F 66% 29.88 in 10.0 mi SE 15.0 mph 23.0 mph N/A   Clear
10:53 PM 70.0 °F - 59.0 °F 68% 29.89 in 10.0 mi SSE 12.7 mph - N/A   Clear
11:53 PM 69.1 °F - 59.0 °F 70% 29.91 in 10.0 mi SSE 10.4 mph - N/A   Clear